ALLMENDG2 Weather Reports


time (UTC)temp
C
wind
direction
speed
KPH
gust
KPH
rain 1hr
cm
rain 24hr
cm
rain mn
cm
humidity
%
barometer
mb
20260506220209 10 202 8.0 0.0 0.00 0.00 0.28 81 1008.1
20260506213209 10 202 8.0 0.0 0.00 0.00 0.28 82 1007.8
20260506210210 10 202 8.0 0.0 0.00 0.00 0.28 82 1007.8
20260506203210 10 202 8.0 0.0 0.00 0.00 0.28 81 1007.9
20260506200210 10 202 8.0 0.0 0.00 0.00 0.28 82 1007.8
20260506193215 10 202 8.0 0.0 0.00 0.00 0.28 80 1007.0
20260506190211 11 202 8.0 0.0 0.00 0.00 0.28 80 1006.9
20260506183209 11 202 8.0 0.0 0.00 0.00 0.28 80 1006.7
20260506180216 11 202 8.0 0.0 0.00 0.00 0.28 79 1006.4
20260506173210 12 202 8.0 0.0 0.00 0.00 0.28 77 1005.9
20260506170215 12 202 8.0 0.0 0.00 0.00 0.28 77 1005.6
20260506163210 12 202 8.0 0.0 0.00 0.00 0.15 75 1005.7
20260506160210 13 225 0.0 0.0 0.00 0.00 0.08 71 1005.5
20260506153210 15 225 16.1 0.0 0.00 0.00 0.00 64 1004.4
20260506150210 18 225 19.3 0.0 0.00 0.00 0.00 57 1003.8
20260506143210 18 292 9.7 0.0 0.00 0.00 0.00 57 1004.2
20260506140210 18 225 0.0 0.0 0.00 0.00 0.00 57 1003.9
20260506133211 18 225 0.0 0.0 0.00 0.00 0.00 57 1003.9
20260506130211 18 225 0.0 0.0 0.00 0.00 0.00 58 1003.9
20260506123210 18 225 0.0 0.0 0.00 0.00 0.00 59 1003.9
20260506120210 17 225 0.0 0.0 0.00 0.00 0.00 60 1004.2
20260506113217 17 225 0.0 0.0 0.00 0.00 0.00 60 1004.2
20260506110210 16 225 0.0 0.0 0.00 0.00 0.00 65 1004.4
20260506100213 11 315 0.0 0.0 0.00 0.00 0.00 80 1007.1
20260506093211 11 315 0.0 0.0 0.00 0.00 0.00 80 1007.1
20260506090211 11 315 0.0 0.0 0.00 0.00 0.00 80 1007.1
20260506083211 11 315 0.0 0.0 0.00 0.00 0.00 80 1007.1
20260506080212 11 315 0.0 0.0 0.00 0.00 0.00 80 1007.1
20260506073211 11 315 0.0 0.0 0.00 0.00 0.00 80 1007.1
20260506070212 11 315 0.0 0.0 0.00 0.00 0.00 80 1007.1
20260506060210 11 315 0.0 0.0 0.00 0.00 0.00 80 1007.1
20260506050211 11 315 0.0 0.0 0.00 0.00 0.00 80 1007.1
20260506043211 11 315 0.0 0.0 0.00 0.00 0.00 80 1007.1
20260506040211 11 315 0.0 0.0 0.00 0.00 0.00 80 1007.1
20260506033211 11 315 0.0 0.0 0.00 0.00 0.00 80 1007.1
20260506030212 11 315 0.0 0.0 0.00 0.00 0.00 80 1007.1
20260506023211 11 315 0.0 0.0 0.00 0.00 0.00 80 1007.1
20260506020212 11 315 0.0 0.0 0.00 0.00 0.00 80 1007.1
20260506013211 11 315 0.0 0.0 0.00 0.00 0.00 80 1007.1
20260506010212 11 315 0.0 0.0 0.00 0.00 0.00 80 1007.1
20260506003209 11 315 0.0 0.0 0.00 0.00 0.00 80 1007.1
20260506000211 11 315 0.0 0.0 0.00 0.00 0.00 80 1007.1
20260505233209 11 247 0.0 0.0 0.00 0.00 0.00 78 1007.0
20260505230209 12 225 0.0 0.0 0.00 0.00 0.00 78 1007.3
20260505223210 12 247 3.2 0.0 0.00 0.00 0.00 77 1007.4